World > North America > United States > Missouri

Climax Springs, Missouri Regional Weather

Lat: 38.10N, Lon: 93.05W
Wx Zone: MOZ069Web Search

Our weather pages are very print friendly and they make great conversation starters.

Feedback


°F Click to change Climax Springs hourly weather to Imperial units.Click to change Climax Springs hourly weather to Metric units. °C
Climax Springs Weather Map
UTC Time: 4/15/2021, 16:27
Your Time:

Climax Springs, MO Regional Weather

Expires:202104151700;;596323
ASUS43 KLSX 151607
RWRMO 

WEATHER SUMMARY FOR MISSOURI
NATIONAL WEATHER SERVICE SPRINGFIELD MO
1100 AM CDT THU APR 15 2021

NOTE: "FAIR" INDICATES FEW OR NO CLOUDS BELOW 12,000 FEET WITH NO
       SIGNIFICANT WEATHER AND/OR OBSTRUCTIONS TO VISIBILITY.
       CURRENT SKY AND/OR WEATHER CONDITIONS ARE NOT AVAILABLE FOR
       CHILLICOTHE AND FARMINGTON.


MOZ032>034-039>042-045>050-055>058-069>072-151700-
...CENTRAL MISSOURI...  
  
CITY           SKY/WX    TMP DP  RH WIND       PRES   REMARKS
COLUMBIA       SUNNY     51  33  50 N8        30.17S                  
JEFFERSON CITY SUNNY     53  31  42 N8        30.17F                  
ROLLA          SUNNY     50  34  54 N8        30.14F                  
SEDALIA        SUNNY     51  35  54 NE10      30.19F                  
WHITEMAN AFB   MOSUNNY   49  34  56 N6        30.15S                  
WARRENSBURG    SUNNY     50  32  50 NW7       30.20R                  
OSAGE BEACH    SUNNY     50  32  50 VRB5      30.18S                  
               
$$

SKY/WX - Weather  TMP - Temperature  DP - Dew Point  RH - Relative Humidity
WIND - Wind Direction/Speed PRES - Barometric Pressure VSB - Visibility
WCI - Wind Chill Index E13G22 Wind - East Wind 13 mph/Gusts of 22 mph